STARLINK-34427, 64498

Orbit data source: Space-Track

STARLINK-34427, 64498 is a payload satellite owned by SpaceX/Seattle (US) in LEO that was launched on Mon, 23 Jun 2025 UTC via an FALCON 9 launch vehicle from the Air Force Eastern Test Range (AFETR). Payload-class satellites include a variety of spacecraft equipped with specific instruments for various scientific and technological missions. These include communications satellites like Starlink; space stations such as the ISS; scientific satellites like the Hubble; Earth observation satellites from companies like Planet Labs, Umbra, and HawkEye 360; GPS; miniature CubeSats for education and research; and military/defense satellites.

Loading next visibility...
Identifier
64498, 2025-133AC
Orbit
LEO
Country
Flag of USUS
Related business
Manufacturer
SpaceX/Seattle
Mission
Operational Commercial Communications
Bus & Motor
STARLINK V2MO, Unknown motor
Mass
575 kg wet, ~530 kg dry
Launch date (UTC)
2025-06-23 (1 year ago)
Launch vehicle
FALCON 9
Launch site
Air Force Eastern Test Range (AFETR)
Object type
Payload
Rocket body
Debris
Shape & HBR
Box + 2 Pan, 17.7 m
Radar Cross Section
36.964 m², Large (>1 m²)

Expand to show TLE details & history
Last TLE update: 1 day ago

TLE from 1 day ago
0 STARLINK-34427
1 64498U 25133AC  26170.92533615  .00019086  00000-0  65402-3 0  9999
2 64498  53.1626   1.7396 0001500  80.1419 279.9752 15.30241522 56840
Epoch: 2026-06-19T22:12Z
TLE epoch observation values (Epoch: 2026-06-19T22:12:29.043Z)
Latitude
0.00006°
Longitude
120.47131°
Altitude
475.813 km
Speed
7.629 km/s
True Right ascension
00h 06m 57s
True Declination
0° 00' 00"
Sunlit
Object was in daylight at epoch
Visualization orbit readout
Latitude
Unknown
Longitude
Unknown
Altitude
Unknown
Speed
Unknown
Apparent Right ascension
Unknown
Apparent Declination
Unknown
Sunlit
N/A
Visualization observer readout
Local Sidereal Time
10:19:06
Azimuth
Unknown
Elevation
Unknown
Doppler factor
Unknown
Orbital elements
Apogee altitude
476.375 km
Perigee altitude
474.319 km
Semi-major axis
6,853.484 km
Eccentricity
0.00015
Inclination
53.1626°
RAAN
1.7396°
Arg. of periapsis
80.1419°
True anomaly
279.95827°
Mean anomaly
279.9752°
Eccentric anomaly
279.96674°
Mean motion
3.82539 °/min
Orbital period
94.11 mins
BSTAR
0.00065402
Loading maneuver chart data...
Computing Atmospheric mass density...
Loading historical data...
Loading historical data...
Loading historical data...
Loading historical data...
Loading historical data...
Loading historical data...
Loading historical data...

Documentation

Showing up to 5 results
|